This demonstration page uses our WeatherBlox Daily Observations layout. Learn more.

40.92945, -100.16068

Hourly Observations for December 10, 2016

Temp ( °F °C ) Dew Point ( °F °C ) Humidity (%) Winds ( mph kmh ) Pressure ( in mb ) Visibility ( mi km ) Precip ( " mm )
12:15 am 00:15 Partly Cloudy 15 -9.2 11 -11.5 84 84 ESE 6 9 30.53 1034 10 16.0934 N/A
12:35 am 00:35 Mostly Cloudy 16 -8.8 12 -11.3 82 82 ESE 8 13 30.5 1033 10 16.0934 N/A
12:55 am 00:55 Mostly Cloudy 16 -8.7 12 -11.3 82 82 ESE 10 17 30.5 1033 10 16.0934 N/A
1:15 am 01:15 Cloudy 17 -8.5 12 -11.1 82 82 SE 9 15 30.5 1033 10 16.0934 N/A
1:35 am 01:35 Cloudy 17 -8.2 12 -11 80 80 ESE 10 17 30.48 1032 10 16.0934 N/A
1:55 am 01:55 Cloudy 18 -8 12 -11 79 79 ESE 8 13 30.45 1031 10 16.0934 N/A
2:15 am 02:15 Cloudy 17 -8.1 12 -11 80 80 ESE 8 13 30.45 1031 10 16.0934 N/A
2:35 am 02:35 Cloudy 18 -7.8 13 -10.7 80 80 ESE 8 13 30.45 1031 10 16.0934 N/A
2:55 am 02:55 Cloudy 18 -7.6 13 -10.6 79 79 ESE 8 13 30.45 1031 10 16.0934 N/A
3:15 am 03:15 Mostly Cloudy 19 -7.2 13 -10.4 78 78 SE 6 9 30.45 1031 10 16.0934 N/A
3:35 am 03:35 Mostly Cloudy 19 -7.1 13 -10.3 78 78 ESE 7 11 30.45 1031 10 16.0934 N/A
3:55 am 03:55 Mostly Cloudy 19 -7 14 -10.2 78 78 ESE 8 13 30.42 1030 10 16.0934 N/A
4:15 am 04:15 Partly Cloudy 20 -6.9 14 -10.1 78 78 ESE 8 13 30.42 1030 10 16.0934 N/A
4:35 am 04:35 Clear 20 -6.8 14 -10 78 78 ESE 9 15 30.39 1029 10 16.0934 N/A
4:55 am 04:55 Clear 20 -6.6 14 -9.9 78 78 ESE 7 11 30.39 1029 10 16.0934 N/A
5:15 am 05:15 Partly Cloudy 20 -6.5 14 -9.8 78 78 ESE 8 13 30.39 1029 10 16.0934 N/A
5:35 am 05:35 Partly Cloudy 21 -6.3 15 -9.7 77 77 ESE 9 15 30.36 1028 10 16.0934 N/A
5:55 am 05:55 Partly Cloudy 21 -6.2 15 -9.6 77 77 SE 9 15 30.36 1028 10 16.0934 N/A
6:15 am 06:15 Partly Cloudy 21 -6.2 15 -9.6 77 77 ESE 10 17 30.33 1027 10 16.0934 N/A
6:35 am 06:35 Partly Cloudy 21 -6.3 15 -9.6 78 78 SE 12 19 30.33 1027 10 16.0934 N/A
6:55 am 06:55 Mostly Cloudy 20 -6.6 15 -9.7 79 79 SE 10 17 30.33 1027 10 16.0934 N/A
7:15 am 07:15 Mostly Cloudy 20 -6.6 15 -9.7 79 79 SE 12 19 30.33 1027 10 16.0934 N/A
7:35 am 07:35 Mostly Cloudy 20 -6.5 15 -9.6 79 79 SE 13 20 30.3 1026 10 16.0934 N/A
7:55 am 07:55 Cloudy 20 -6.6 15 -9.7 79 79 SSE 12 19 30.3 1026 10 16.0934 N/A
8:15 am 08:15 Cloudy 20 -6.6 15 -9.6 79 79 SSE 13 20 30.3 1026 10 16.0934 N/A
8:35 am 08:35 Partly Cloudy 20 -6.7 14 -9.8 79 79 SSE 17 28 30.3 1026 10 16.0934 N/A
8:55 am 08:55 Sunny 20 -6.8 14 -10 78 78 SSE 15 24 30.27 1025 10 16.0934 N/A
9:15 am 09:15 Sunny 21 -6 15 -9.5 77 77 SSE 14 22 30.27 1025 10 16.0934 N/A
9:35 am 09:35 Partly Cloudy 22 -5.5 15 -9.2 75 75 SSE 16 26 30.27 1025 10 16.0934 N/A
9:55 am 09:55 Partly Cloudy 24 -4.4 16 -8.8 72 72 SE 15 24 30.27 1025 10 16.0934 N/A
10:15 am 10:15 Mostly Cloudy 25 -4.1 16 -8.8 70 70 SSE 16 26 30.21 1023 10 16.0934 N/A
10:35 am 10:35 Mostly Cloudy 25 -4 16 -8.9 69 69 SSE 17 28 30.21 1023 10 16.0934 N/A
10:55 am 10:55 Cloudy 26 -3.1 17 -8.4 67 67 SSE 14 22 30.21 1023 10 16.0934 N/A
11:15 am 11:15 Cloudy 26 -3.1 17 -8.1 69 69 SSE 16 26 30.18 1022 10 16.0934 N/A
11:35 am 11:35 Cloudy 27 -2.8 18 -8 68 68 S 16 26 30.18 1022 10 16.0934 N/A
11:55 am 11:55 Cloudy 27 -2.7 18 -8 67 67 S 12 19 30.18 1022 10 16.0934 N/A
12:15 pm 12:15 Cloudy 28 -2.2 18 -7.6 67 67 SSE 16 26 30.18 1022 10 16.0934 N/A
12:35 pm 12:35 Cloudy 29 -1.8 19 -7.3 66 66 S 14 22 30.12 1020 10 16.0934 N/A
12:55 pm 12:55 Cloudy 29 -1.6 19 -7 67 67 S 16 26 30.09 1019 10 16.0934 N/A
1:15 pm 13:15 Cloudy 29 -1.5 20 -6.9 67 67 SSE 15 24 30.06 1018 10 16.0934 N/A
1:35 pm 13:35 Cloudy 29 -1.5 20 -6.6 69 69 S 16 26 30.06 1018 10 16.0934 N/A
1:55 pm 13:55 Cloudy 29 -1.6 20 -6.7 69 69 SSE 14 22 30.03 1017 10 16.0934 N/A
2:15 pm 14:15 Cloudy 30 -1.1 20 -6.5 67 67 SSE 14 22 30.03 1017 10 16.0934 N/A
2:35 pm 14:35 Partly Cloudy 30 -1 20 -6.4 67 67 S 15 24 30.03 1017 10 16.0934 N/A
2:55 pm 14:55 Sunny 31 -0.5 21 -6.2 66 66 SSE 14 22 30 1016 10 16.0934 N/A
3:15 pm 15:15 Sunny 32 -0.1 21 -6 65 65 SSE 18 30 29.97 1015 10 16.0934 N/A
3:35 pm 15:35 Sunny 32 0 21 -6 64 64 S 17 28 29.97 1015 10 16.0934 N/A
3:55 pm 15:55 Sunny 32 0 22 -5.7 66 66 SSE 16 26 29.97 1015 10 16.0934 N/A
4:15 pm 16:15 Sunny 32 0 22 -5.6 66 66 S 15 24 29.97 1015 10 16.0934 N/A
4:35 pm 16:35 Partly Cloudy 32 0 22 -5.5 67 67 S 9 15 29.97 1015 10 16.0934 N/A
4:55 pm 16:55 Sunny 32 0 22 -5.3 68 68 SSE 9 15 29.94 1014 10 16.0934 N/A
5:15 pm 17:15 Clear 32 0 23 -5.2 68 68 SSE 6 9 29.94 1014 10 16.0934 N/A
5:35 pm 17:35 Clear 31 -0.3 23 -5.2 70 70 SE 7 11 29.91 1013 10 16.0934 N/A
5:55 pm 17:55 Clear 31 -0.3 23 -5 71 71 SSE 7 11 29.91 1013 10 16.0934 N/A
6:15 pm 18:15 Clear 31 -0.5 23 -5 72 72 SSE 8 13 29.91 1013 10 16.0934 N/A
6:35 pm 18:35 Clear 31 -0.6 23 -4.8 74 74 SSE 8 13 29.91 1013 10 16.0934 N/A
6:55 pm 18:55 Clear 31 -0.8 23 -4.8 75 75 S 7 11 29.88 1012 10 16.0934 N/A
7:15 pm 19:15 Clear 30 -1.3 23 -5 76 76 SSE 6 9 29.88 1012 10 16.0934 N/A
7:35 pm 19:35 Clear 28 -2 23 -5.1 80 80 SSE 7 11 29.91 1013 10 16.0934 N/A
7:55 pm 19:55 Partly Cloudy 30 -1.1 24 -4.5 78 78 SE 7 11 29.88 1012 10 16.0934 N/A
8:15 pm 20:15 Mostly Cloudy 31 -0.6 24 -4.5 75 75 SSE 9 15 29.85 1011 10 16.0934 N/A
8:35 pm 20:35 Mostly Cloudy 31 -0.5 24 -4.5 75 75 S 7 11 29.85 1011 10 16.0934 N/A
8:55 pm 20:55 Partly Cloudy 31 -0.6 24 -4.5 75 75 S 5 7 29.85 1011 10 16.0934 N/A
9:15 pm 21:15 Partly Cloudy 31 -0.7 24 -4.5 76 76 SSE 3 6 29.85 1011 10 16.0934 N/A
9:35 pm 21:35 Partly Cloudy 31 -0.6 24 -4.3 76 76 SSE 6 9 29.83 1010 10 16.0934 N/A
9:55 pm 21:55 Clear 31 -0.5 24 -4.2 76 76 SSE 5 7 29.83 1010 10 16.0934 N/A
10:15 pm 22:15 Clear 31 -0.3 24 -4.2 75 75 Calm 29.83 1010 10 16.0934 N/A
10:35 pm 22:35 Clear 31 -0.5 25 -4 77 77 SE 8 13 29.8 1009 10 16.0934 N/A
10:55 pm 22:55 Clear 31 -0.6 24 -4.2 77 77 SSE 9 15 29.8 1009 10 16.0934 N/A
11:15 pm 23:15 Clear 30 -1 24 -4.3 79 79 SSE 6 9 29.8 1009 10 16.0934 N/A
11:35 pm 23:35 Clear 29 -1.5 24 -4.6 80 80 SSE 6 9 29.8 1009 10 16.0934 N/A
11:55 pm 23:55 Clear 28 -2.5 23 -5.1 83 83 SSE 3 6 29.83 1010 10 16.0934 N/A

Powered by AerisWeather